Oroville, Washington, United States (98844)
Lat: 48.94N, Lon: 119.43W
Wx Zone: WAZ043
Local Info
Past Weather Observations for Today

NOTE: This archive is for the closest National Weather Service station to Oroville. Information may differ from the station used for current weather conditions.

Click here for Long-term Archive

Time Weather Temperature Dewpoint Humidity Pressure Winds Precip Visibility
21:53
Overcast
Light Rain
48°F / 9°C 46°F / 8°C 94% 29.83 in
(1010 mb)
Calm 0.01 in
(0.25 mm)
3SM
21:50
Overcast
Light Rain
48°F / 9°C 46°F / 8°C 94% 29.83 in
(1010 mb)
Calm 0.01 in
(0.25 mm)
3SM
21:22
Overcast
Light Rain
48°F / 9°C 46°F / 8°C 94% 29.86 in
(1011 mb)
Calm 0.00 in
(0.00 mm)
2SM
21:12
Overcast
Light Rain
48°F / 9°C 46°F / 8°C 94% 29.86 in
(1011 mb)
Calm 0.00 in
(0.00 mm)
1 1/4SM
20:53
Overcast
Light Rain
48°F / 9°C 46°F / 8°C 94% 29.86 in
(1011 mb)
Calm 0.01 in
(0.25 mm)
1 1/2SM
20:47
Mostly Cloudy
Light Rain
48°F / 9°C 46°F / 8°C 94% 29.86 in
(1011 mb)
Calm 0.00 in
(0.00 mm)
1 1/4SM
20:36
Mostly Cloudy
Light Rain
48°F / 9°C 46°F / 8°C 94% 29.86 in
(1011 mb)
Calm 0.00 in
(0.00 mm)
1/2SM
20:26
Mostly Cloudy
Fog
48°F / 9°C 46°F / 8°C 94% 29.86 in
(1011 mb)
Calm 0.00 in
(0.00 mm)
1/2SM
20:20
Overcast
Fog
48°F / 9°C 46°F / 8°C 94% 29.86 in
(1011 mb)
Calm 0.00 in
(0.00 mm)
1/2SM
20:12
Overcast
Light Rain
48°F / 9°C 46°F / 8°C 94% 29.86 in
(1011 mb)
Calm 0.00 in
(0.00 mm)
1/2SM
19:53
Overcast
Light Rain
48°F / 9°C 46°F / 8°C 94% 29.86 in
(1011 mb)
Calm 0.01 in
(0.25 mm)
3/4SM
19:25
Overcast
Fog And Mist
48°F / 9°C 48°F / 9°C 100% 29.89 in
(1012 mb)
Calm - 3/4SM
19:16
Mostly Cloudy
Fog And Mist
48°F / 9°C 46°F / 8°C 94% 29.89 in
(1012 mb)
Calm - 1SM
19:03
Overcast
Fog And Mist
48°F / 9°C 46°F / 8°C 94% 29.89 in
(1012 mb)
Calm - 2SM
18:53
Overcast
Fog And Mist
48°F / 9°C 46°F / 8°C 94% 29.89 in
(1012 mb)
Calm - 1 3/4SM
18:34
Overcast
Fog And Mist
48°F / 9°C 48°F / 9°C 100% 29.89 in
(1012 mb)
Calm - 2SM
18:28
Overcast
Fog And Mist
48°F / 9°C 48°F / 9°C 100% 29.89 in
(1012 mb)
Calm - 1 1/2SM
18:16
Overcast
Fog And Mist
48°F / 9°C 46°F / 8°C 94% 29.89 in
(1012 mb)
Calm - 1 1/2SM
17:59
Overcast
Fog And Mist
48°F / 9°C 46°F / 8°C 94% 29.92 in
(1013 mb)
Calm - 2 1/2SM
17:53
Overcast
Fog And Mist
48°F / 9°C 48°F / 9°C 100% 29.92 in
(1013 mb)
Calm 0.01 in
(0.25 mm)
3SM
17:03
Overcast
Light Rain
48°F / 9°C 48°F / 9°C 100% 29.92 in
(1013 mb)
Calm 0.00 in
(0.00 mm)
3SM
16:53
Overcast
Light Rain
48°F / 9°C 48°F / 9°C 100% 29.92 in
(1013 mb)
Calm 0.02 in
(0.51 mm)
3SM
16:44
Overcast
Light Rain
48°F / 9°C 48°F / 9°C 100% 29.92 in
(1013 mb)
S 3.5 mph
(S 6 kph)
0.02 in
(0.51 mm)
3SM
16:29
Overcast
Light Rain
50°F / 10°C 48°F / 9°C 94% 29.92 in
(1013 mb)
Calm 0.01 in
(0.25 mm)
2 1/2SM
16:08
Overcast
Light Rain
50°F / 10°C 48°F / 9°C 94% 29.95 in
(1014 mb)
SSE 3.5 mph
(SSE 6 kph)
0.00 in
(0.00 mm)
6SM
15:53
Overcast
Light Rain
50°F / 10°C 48°F / 9°C 94% 29.95 in
(1014 mb)
Calm 0.01 in
(0.25 mm)
8SM
14:53
Overcast
Light Rain
50°F / 10°C 48°F / 9°C 94% 29.95 in
(1014 mb)
Calm 0.00 in
(0.00 mm)
8SM
14:07
Overcast
Light Rain
50°F / 10°C 46°F / 8°C 88% 29.98 in
(1015 mb)
Calm 0.00 in
(0.00 mm)
10SM
13:53
Overcast
Light Rain
50°F / 10°C 46°F / 8°C 88% 29.98 in
(1015 mb)
Calm 0.01 in
(0.25 mm)
9SM
13:51
Overcast
Light Rain
50°F / 10°C 46°F / 8°C 88% 29.98 in
(1015 mb)
Calm 0.01 in
(0.25 mm)
9SM
13:44
Overcast
Light Rain
50°F / 10°C 48°F / 9°C 94% 29.98 in
(1015 mb)
Calm 0.01 in
(0.25 mm)
9SM
13:35
Overcast
Light Rain
50°F / 10°C 46°F / 8°C 88% 29.98 in
(1015 mb)
Calm 0.01 in
(0.25 mm)
9SM
13:19
Overcast
Light Rain
50°F / 10°C 46°F / 8°C 88% 30.01 in
(1016 mb)
Calm 0.00 in
(0.00 mm)
7SM
13:01
Overcast
Light Rain
48°F / 9°C 46°F / 8°C 94% 30.01 in
(1016 mb)
Calm 0.00 in
(0.00 mm)
5SM
12:53
Overcast
Light Rain
48°F / 9°C 46°F / 8°C 94% 30.01 in
(1016 mb)
Calm 0.04 in
(1.02 mm)
5SM
12:37
Overcast
Light Rain
48°F / 9°C 46°F / 8°C 94% 30.04 in
(1017 mb)
Calm 0.03 in
(0.76 mm)
5SM
12:28
Overcast
Light Rain
48°F / 9°C 46°F / 8°C 94% 30.04 in
(1017 mb)
Calm 0.02 in
(0.51 mm)
5SM
12:07
Overcast
Light Rain
48°F / 9°C 46°F / 8°C 94% 30.04 in
(1017 mb)
S 3.5 mph
(S 6 kph)
0.01 in
(0.25 mm)
6SM
11:53
Overcast
Light Rain
48°F / 9°C 46°F / 8°C 94% 30.04 in
(1017 mb)
SSE 3.5 mph
(SSE 6 kph)
0.02 in
(0.51 mm)
7SM
11:27
Overcast
Light Rain
48°F / 9°C 46°F / 8°C 94% 30.06 in
(1018 mb)
S 3.5 mph
(S 6 kph)
0.02 in
(0.51 mm)
5SM
10:53
Overcast
Light Rain
48°F / 9°C 46°F / 8°C 94% 30.06 in
(1018 mb)
S 3.5 mph
(S 6 kph)
0.02 in
(0.51 mm)
6SM
09:53
Overcast
Light Rain
46°F / 8°C 45°F / 7°C 93% 30.09 in
(1019 mb)
Calm 0.01 in
(0.25 mm)
7SM
08:53
Overcast
48°F / 9°C 45°F / 7°C 87% 30.09 in
(1019 mb)
Calm - 10SM
07:53
Overcast
46°F / 8°C 45°F / 7°C 93% 30.09 in
(1019 mb)
Calm - 10SM
06:53
Overcast
46°F / 8°C 45°F / 7°C 93% 30.12 in
(1020 mb)
Calm - 10SM
05:53
Overcast
46°F / 8°C 45°F / 7°C 93% 30.12 in
(1020 mb)
Calm - 10SM
04:53
Overcast
46°F / 8°C 45°F / 7°C 93% 30.12 in
(1020 mb)
Calm - 10SM
03:53
Overcast
46°F / 8°C 45°F / 7°C 93% 30.12 in
(1020 mb)
Calm - 10SM
02:53
Overcast
46°F / 8°C 45°F / 7°C 93% 30.15 in
(1021 mb)
Calm 0.00 in
(0.00 mm)
10SM
01:53
Overcast
Light Rain
46°F / 8°C 45°F / 7°C 93% 30.18 in
(1022 mb)
Calm 0.00 in
(0.00 mm)
10SM
00:53
Overcast
46°F / 8°C 43°F / 6°C 87% 30.18 in
(1022 mb)
Calm - 10SM
Time Weather Temperature Dewpoint Humidity Pressure Winds Precip Visibility


Weather for websites

WeatherForYou.com, LLC is not responsible for any damages or problems caused by this service. Current weather conditions are obtained from the closest station including government and personal stations which may have varying degrees of accuracy. Weather forecasts are derived from the NOAA NDFD. Like all things, this site belongs to Jesus Christ... He just trusts me to maintain it. If you have any questions or comments email webmaster@weatherforyou.com

Copyright © 2014, WeatherForYou.com LLC. All rights reserved.